Regional Weather Roundup
Issued by NWS

Home | Current Version | Previous Version | Graphics & Text | Print | Product List | Glossary On
Versions: 1 2 3 4 5 6 7 8 9 10 11 12 13 14 15 16 17 18 19 20 21 22 23 24 25 26 27 28 29 30 31 32 33 34 35 36 37 38 39 40 41 42 43 44 45 46 47 48 49 50
000
ASUS45 KBOU 171510
RWRCO

WEATHER ROUNDUP FOR COLORADO
NATIONAL WEATHER SERVICE PUEBLO CO
800 AM MST SAT FEB 17 2018

NOTE: "FAIR" INDICATES FEW OR NO CLOUDS BELOW 12000 FEET WITH NO
SIGNIFICANT WEATHER AND/OR OBSTRUCTIONS TO VISIBILITY.

COZ001>005-013-030-031-171600-
...NORTHWEST COLORADO...

CITY           SKY/WX    TMP DP  RH WIND       PRES   REMARKS
CRAIG          PTCLDY     9   3  77 SE6       30.20R WCI  -1
HAYDEN         PTCLDY    21   9  59 E6        30.20R WCI  13
MEEKER         CLEAR     21  11  65 NE5       30.21R WCI  15
RABBIT EARS PA NOT AVBL
STEAMBOAT SPGS CLOUDY    22  12  67 SE5       30.18R WCI  15
WALDEN         FAIR      21   7  53 W21G26    30.08R WCI   6
$$

COZ006>008-011-171600-
...WEST CENTRAL VALLEYS...

CITY           SKY/WX    TMP DP  RH WIND       PRES   REMARKS
GRAND JUNCTION CLEAR     24  21  88 CALM      30.25R
MONTROSE       SUNNY     21  17  84 S6        30.27R WCI  13
EAGLE          SUNNY     21  13  71 E8        30.24R WCI  11
RIFLE          CLEAR     19  13  77 E3        30.26R
DELTA          NOT AVBL
NUCLA          FAIR      27  16  63 CALM      30.29R
$$

COZ017>023-064>068-171600-
...SOUTHWEST COLORADO...

CITY           SKY/WX    TMP DP  RH WIND       PRES   REMARKS
DURANGO        SUNNY     18  16  92 S3        30.24R
CORTEZ         SUNNY     19  15  84 CALM      30.26R
PAGOSA SPRINGS FAIR      15  14  95 CALM      30.24R
TELLURIDE      MOSUNNY   18   6  59 SE8       30.26R WCI   8
WOLF CREEK PAS   N/A     12  10  92 S13       30.22R WCI  -3
$$

COZ009-010-012-014-032>034-037-058>063-171600-
...CENTRAL COLORADO...

CITY           SKY/WX    TMP DP  RH WIND       PRES   REMARKS
ASPEN          SUNNY     13   6  74 S9        30.20R WCI   1
BUENA VISTA    FAIR      32   2  28 W21G29    30.10R WCI  20
COPPER MTN     SUNNY     12   5  73 W16       30.08R WCI  -4
BERTHOUD PASS  HAZE       3  -8  60 NW17G23   30.03R VSB<1/4 WCI -17
COTTONWOOD PAS SUNNY     28   7  40 W31G47    30.03R WCI  12
GUNNISON       SUNNY     18  12  77 CALM      30.24R
KREMMLING      MOSUNNY   28  12  50 CALM      30.17R
LEADVILLE      SUNNY     16   6  65 N14G22    30.12R WCI   2
MONARCH PASS     N/A     10   5  79 W38G47    30.19R WCI -14
SALIDA         FAIR      35   3  25 W26G36    30.16R WCI  23
SUNLIGHT       SUNNY     10   5  79 SW15G26     N/A  WCI  -6
WILKERSON PASS SUNNY     18  -6  35 MISG      30.00S
$$

COZ069>075-171600-
...SAN LUIS VALLEY/SANGRE DE CRISTO MOUNTAINS...

CITY           SKY/WX    TMP DP  RH WIND       PRES   REMARKS
ALAMOSA        SUNNY     15  11  83 NE5       30.18R WCI   8
DEL NORTE      FAIR      22   9  56 W6        30.18R WCI  15
LA VETA PASS   SUNNY     21  10  63 SW23G45   30.18R WCI   5
SAGUACHE       SUNNY     23  10  58 N6        30.18R WCI  16
$$

COZ035-036-038>040-171600-
...NORTHERN COLORADO FRONT RANGE...

CITY           SKY/WX    TMP DP  RH WIND       PRES   REMARKS
DENVER INTL AP MOSUNNY   29  14  53 SE8       30.03R WCI  21
DMNS CITY PARK NOT AVBL
AURORA         SUNNY     30  14  51 SE6       30.04R WCI  24
FRONT RANGE AP MOSUNNY   30  19  64 SE6       30.04R WCI  24
ERIE MUNI ARPT FAIR      33  12  41 CALM      30.08R
BOULDER MUN AP FAIR      36  10  35 SE3       30.01R
CENTENNIAL     MOSUNNY   32  13  45 S8        30.02R WCI  25
BROOMFIELD     MOSUNNY   39   7  26 NW20G29   29.99S
LOVELAND       SUNNY     38   7  27 W3        30.01R
LONGMONT       FAIR      44   7  22 W17G40    30.03R
$$

COZ041-046-047-076>085-087-088-171600-
...PIKES PEAK/PALMER DIVIDE AND SOUTHERN FOOTHILLS...

CITY           SKY/WX    TMP DP  RH WIND       PRES   REMARKS
COLO. SPRINGS  SUNNY     35  10  35 E9        30.05R WCI  28
A. F. ACADEMY  SUNNY     32   5  31 N5        30.03R WCI  28
SCHRIEVER AFB  NOT AVBL
CHEYENNE MTN   NOT AVBL
ELLICOTT         N/A    N/A N/A N/A NE9       30.05R
FALCON         FAIR      28  10  45 NE5       30.06R WCI  23
FORT CARSON    SUNNY     29  14  53 S10       30.05R WCI  20
LIMON          SUNNY     29  14  53 W9        30.07R WCI  20
MONUMENT HILL  SUNNY     25  12  58 S7        30.05R WCI  17
CANON CITY     SUNNY     41  14  33 W6        30.04R
WALSENBURG     FAIR      43  14  31 W16G26    30.07R
TRINIDAD       SUNNY     37  15  40 S3        30.08R
$$

COZ042>045-048>051-090-091-171600-
...NORTHEAST COLORADO...

CITY           SKY/WX    TMP DP  RH WIND       PRES   REMARKS
GREELEY ARPT   SUNNY     38  11  32 NW12      30.04R
AKRON          SUNNY     36  14  40 NW25G37   30.02R
BURLINGTON     SUNNY     35  17  47 NW15G22   30.06R WCI  25
WRAY           FAIR      36  19  51 NW12      30.05R
YUMA           NOT AVBL
STERLING       FAIR      36  16  44 NW18G26   30.03R
HOLYOKE        FAIR      36  19  51 NW10G20   30.03R
FORT MORGAN    FAIR      37   9  31 NW28      30.05R
$$

COZ086-089-092>099-171600-
...SOUTHEAST COLORADO...

CITY           SKY/WX    TMP DP  RH WIND       PRES   REMARKS
PUEBLO         SUNNY     35  17  47 S8        30.09R WCI  29
LA JUNTA       SUNNY     35  16  45 S6        30.11R WCI  30
LAMAR          SUNNY     38  14  37 NW6       30.08R
SPRINGFIELD      N/A     36  17  46 NW8       30.10R
$$




USA.gov is the U.S. government's official web portal to all federal, state and local government web resources and services.